Year,Month,Day,Hour,Minute,Value (Times are PST for temperature in C)
2015,02,18,00,00,10.10
2015,02,18,00,01,10.10
2015,02,18,00,02,10.10
2015,02,18,00,03,10.10
2015,02,18,00,04,10.10
2015,02,18,00,05,10.10
2015,02,18,00,06,10.10
2015,02,18,00,07,10.10
2015,02,18,00,08,10.20
2015,02,18,00,09,10.20
2015,02,18,00,10,10.20
2015,02,18,00,11,10.20
2015,02,18,00,12,10.20
2015,02,18,00,13,10.10
2015,02,18,00,14,10.10
2015,02,18,00,15,10.10
2015,02,18,00,16,10.10
2015,02,18,00,17,10.10
2015,02,18,00,18,10.10
2015,02,18,00,19,10.10
2015,02,18,00,20,10.10
2015,02,18,00,21,10.00
2015,02,18,00,22,10.00
2015,02,18,00,23,10.00
2015,02,18,00,24,10.00
2015,02,18,00,25,9.90
2015,02,18,00,26,9.90
2015,02,18,00,27,9.90
2015,02,18,00,28,9.90
2015,02,18,00,29,9.80
2015,02,18,00,30,9.80
2015,02,18,00,31,9.80
2015,02,18,00,32,9.90
2015,02,18,00,33,9.90
2015,02,18,00,34,9.90
2015,02,18,00,35,9.90
2015,02,18,00,36,9.90
2015,02,18,00,37,9.90
2015,02,18,00,38,9.90
2015,02,18,00,39,9.80
2015,02,18,00,40,9.80
2015,02,18,00,41,9.80
2015,02,18,00,42,9.80
2015,02,18,00,43,9.80
2015,02,18,00,44,9.80
2015,02,18,00,45,9.80
2015,02,18,00,46,9.80
2015,02,18,00,47,9.80
2015,02,18,00,48,9.80
2015,02,18,00,49,9.80
2015,02,18,00,50,9.80
2015,02,18,00,51,9.90
2015,02,18,00,52,9.90
2015,02,18,00,53,9.90
2015,02,18,00,54,9.90
2015,02,18,00,55,9.90
2015,02,18,00,56,9.90
2015,02,18,00,57,10.00
2015,02,18,00,58,10.00
2015,02,18,00,59,10.10
2015,02,18,01,00,10.10
2015,02,18,01,01,10.10
2015,02,18,01,02,10.10
2015,02,18,01,03,10.10
2015,02,18,01,04,10.20
2015,02,18,01,05,10.20
2015,02,18,01,06,10.10
2015,02,18,01,07,10.10
2015,02,18,01,08,10.00
2015,02,18,01,09,10.00
2015,02,18,01,10,9.90
2015,02,18,01,11,9.90
2015,02,18,01,12,9.80
2015,02,18,01,13,9.80
2015,02,18,01,14,9.70
2015,02,18,01,15,9.70
2015,02,18,01,16,9.60
2015,02,18,01,17,9.50
2015,02,18,01,18,9.40
2015,02,18,01,19,9.30
2015,02,18,01,20,9.20
2015,02,18,01,21,9.10
2015,02,18,01,22,9.00
2015,02,18,01,23,9.00
2015,02,18,01,24,8.90
2015,02,18,01,25,8.90
2015,02,18,01,26,8.80
2015,02,18,01,27,8.80
2015,02,18,01,28,8.80
2015,02,18,01,29,8.80
2015,02,18,01,30,8.90
2015,02,18,01,31,8.90
2015,02,18,01,32,8.90
2015,02,18,01,33,8.90
2015,02,18,01,34,8.90
2015,02,18,01,35,8.90
2015,02,18,01,36,8.90
2015,02,18,01,37,9.00
2015,02,18,01,38,9.00
2015,02,18,01,39,9.00
2015,02,18,01,40,9.10
2015,02,18,01,41,9.10
2015,02,18,01,42,9.20
2015,02,18,01,43,9.20
2015,02,18,01,44,9.30
2015,02,18,01,45,9.30
2015,02,18,01,46,9.40
2015,02,18,01,47,9.40
2015,02,18,01,48,9.50
2015,02,18,01,49,9.60
2015,02,18,01,50,9.60
2015,02,18,01,51,9.60
2015,02,18,01,52,9.70
2015,02,18,01,53,9.70
2015,02,18,01,54,9.70
2015,02,18,01,55,9.80
2015,02,18,01,56,9.90
2015,02,18,01,57,10.00
2015,02,18,01,58,10.00
2015,02,18,01,59,10.10
2015,02,18,02,00,10.20
2015,02,18,02,01,10.20
2015,02,18,02,02,10.20
2015,02,18,02,03,10.20
2015,02,18,02,04,10.20
2015,02,18,02,05,10.20
2015,02,18,02,06,10.20
2015,02,18,02,07,10.10
2015,02,18,02,08,10.10
2015,02,18,02,09,10.10
2015,02,18,02,10,10.10
2015,02,18,02,11,10.00
2015,02,18,02,12,10.00
2015,02,18,02,13,9.90
2015,02,18,02,14,9.90
2015,02,18,02,15,9.90
2015,02,18,02,16,9.90
2015,02,18,02,17,9.90
2015,02,18,02,18,9.80
2015,02,18,02,19,9.80
2015,02,18,02,20,9.80
2015,02,18,02,21,9.80
2015,02,18,02,22,9.80
2015,02,18,02,23,9.80
2015,02,18,02,24,9.70
2015,02,18,02,25,9.70
2015,02,18,02,26,9.70
2015,02,18,02,27,9.70
2015,02,18,02,28,9.70
2015,02,18,02,29,9.80
2015,02,18,02,30,9.80
2015,02,18,02,31,9.80
2015,02,18,02,32,9.80
2015,02,18,02,33,9.80
2015,02,18,02,34,9.80
2015,02,18,02,35,9.90
2015,02,18,02,36,9.90
2015,02,18,02,37,9.90
2015,02,18,02,38,9.90
2015,02,18,02,39,9.90
2015,02,18,02,40,10.00
2015,02,18,02,41,10.10
2015,02,18,02,42,10.10
2015,02,18,02,43,10.10
2015,02,18,02,44,10.10
2015,02,18,02,45,10.20
2015,02,18,02,46,10.20
2015,02,18,02,47,10.20
2015,02,18,02,48,10.20
2015,02,18,02,49,10.20
2015,02,18,02,50,10.20
2015,02,18,02,51,10.20
2015,02,18,02,52,10.20
2015,02,18,02,53,10.20
2015,02,18,02,54,10.20
2015,02,18,02,55,10.20
2015,02,18,02,56,10.20
2015,02,18,02,57,10.20
2015,02,18,02,58,10.20
2015,02,18,02,59,10.20
2015,02,18,03,00,10.20
2015,02,18,03,01,10.20
2015,02,18,03,02,10.20
2015,02,18,03,03,10.20
2015,02,18,03,04,10.20
2015,02,18,03,05,10.20
2015,02,18,03,06,10.20
2015,02,18,03,07,10.10
2015,02,18,03,08,10.10
2015,02,18,03,09,10.10
2015,02,18,03,10,10.10
2015,02,18,03,11,10.10
2015,02,18,03,12,10.10
2015,02,18,03,13,10.10
2015,02,18,03,14,10.10
2015,02,18,03,15,10.10
2015,02,18,03,16,10.10
2015,02,18,03,17,10.10
2015,02,18,03,18,10.10
2015,02,18,03,19,10.10
2015,02,18,03,20,10.10
2015,02,18,03,21,10.10
2015,02,18,03,22,10.10
2015,02,18,03,23,10.10
2015,02,18,03,24,10.10
2015,02,18,03,25,10.10
2015,02,18,03,26,10.10
2015,02,18,03,27,10.10
2015,02,18,03,28,10.10
2015,02,18,03,29,10.10
2015,02,18,03,30,10.10
2015,02,18,03,31,10.10
2015,02,18,03,32,10.10
2015,02,18,03,33,10.10
2015,02,18,03,34,10.10
2015,02,18,03,35,10.10
2015,02,18,03,36,10.10
2015,02,18,03,37,10.10
2015,02,18,03,38,10.10
2015,02,18,03,39,10.10
2015,02,18,03,40,10.10
2015,02,18,03,41,10.10
2015,02,18,03,42,10.10
2015,02,18,03,43,10.10
2015,02,18,03,44,10.10
2015,02,18,03,45,10.10
2015,02,18,03,46,10.20
2015,02,18,03,47,10.20
2015,02,18,03,48,10.10
2015,02,18,03,49,10.10
2015,02,18,03,50,10.10
2015,02,18,03,51,10.20
2015,02,18,03,52,10.20
2015,02,18,03,53,10.20
2015,02,18,03,54,10.20
2015,02,18,03,55,10.20
2015,02,18,03,56,10.20
2015,02,18,03,57,10.20
2015,02,18,03,58,10.20
2015,02,18,03,59,10.20
2015,02,18,04,00,10.20
2015,02,18,04,01,10.20
2015,02,18,04,02,10.20
2015,02,18,04,03,10.20
2015,02,18,04,04,10.20
2015,02,18,04,05,10.20
2015,02,18,04,06,10.20
2015,02,18,04,07,10.20
2015,02,18,04,08,10.20
2015,02,18,04,09,10.20
2015,02,18,04,10,10.30
2015,02,18,04,11,10.30
2015,02,18,04,12,10.30
2015,02,18,04,13,10.30
2015,02,18,04,14,10.30
2015,02,18,04,15,10.40
2015,02,18,04,16,10.40
2015,02,18,04,17,10.40
2015,02,18,04,18,10.40
2015,02,18,04,19,10.40
2015,02,18,04,20,10.50
2015,02,18,04,21,10.50
2015,02,18,04,22,10.50
2015,02,18,04,23,10.50
2015,02,18,04,24,10.50
2015,02,18,04,25,10.50
2015,02,18,04,26,10.60
2015,02,18,04,27,10.60
2015,02,18,04,28,10.60
2015,02,18,04,29,10.60
2015,02,18,04,30,10.60
2015,02,18,04,31,10.60
2015,02,18,04,32,10.60
2015,02,18,04,33,10.60
2015,02,18,04,34,10.60
2015,02,18,04,35,10.60
2015,02,18,04,36,10.60
2015,02,18,04,37,10.60
2015,02,18,04,38,10.70
2015,02,18,04,39,10.70
2015,02,18,04,40,10.70
2015,02,18,04,41,10.70
2015,02,18,04,42,10.70
2015,02,18,04,43,10.70
2015,02,18,04,44,10.70
2015,02,18,04,45,10.70
2015,02,18,04,46,10.70
2015,02,18,04,47,10.70
2015,02,18,04,48,10.70
2015,02,18,04,49,10.70
2015,02,18,04,50,10.70
2015,02,18,04,51,10.70
2015,02,18,04,52,10.70
2015,02,18,04,53,10.70
2015,02,18,04,54,10.70
2015,02,18,04,55,10.70
2015,02,18,04,56,10.70
2015,02,18,04,57,10.70
2015,02,18,04,58,10.70
2015,02,18,04,59,10.70
2015,02,18,05,00,10.70
2015,02,18,05,01,10.70
2015,02,18,05,02,10.70
2015,02,18,05,03,10.70
2015,02,18,05,04,10.70
2015,02,18,05,05,10.70
2015,02,18,05,06,10.70
2015,02,18,05,07,10.60
2015,02,18,05,08,10.60
2015,02,18,05,09,10.60
2015,02,18,05,10,10.60
2015,02,18,05,11,10.60
2015,02,18,05,12,10.60
2015,02,18,05,13,10.60
2015,02,18,05,14,10.70
2015,02,18,05,15,10.70
2015,02,18,05,16,10.70
2015,02,18,05,17,10.70
2015,02,18,05,18,10.70
2015,02,18,05,19,10.70
2015,02,18,05,20,10.70
2015,02,18,05,21,10.70
2015,02,18,05,22,10.70
2015,02,18,05,23,10.70
2015,02,18,05,24,10.70
2015,02,18,05,25,10.70
2015,02,18,05,26,10.70
2015,02,18,05,27,10.70
2015,02,18,05,28,10.80
2015,02,18,05,29,10.80
2015,02,18,05,30,10.80
2015,02,18,05,31,10.80
2015,02,18,05,32,10.80
2015,02,18,05,33,10.80
2015,02,18,05,34,10.70
2015,02,18,05,35,10.70
2015,02,18,05,36,10.70
2015,02,18,05,37,10.70
2015,02,18,05,38,10.70
2015,02,18,05,39,10.70
2015,02,18,05,40,10.60
2015,02,18,05,41,10.60
2015,02,18,05,42,10.60
2015,02,18,05,43,10.50
2015,02,18,05,44,10.50
2015,02,18,05,45,10.50
2015,02,18,05,46,10.50
2015,02,18,05,47,10.40
2015,02,18,05,48,10.40
2015,02,18,05,49,10.40
2015,02,18,05,50,10.40
2015,02,18,05,51,10.30
2015,02,18,05,52,10.30
2015,02,18,05,53,10.30
2015,02,18,05,54,10.20
2015,02,18,05,55,10.20
2015,02,18,05,56,10.20
2015,02,18,05,57,10.20
2015,02,18,05,58,10.20
2015,02,18,05,59,10.10
2015,02,18,06,00,10.10
2015,02,18,06,01,10.10
2015,02,18,06,02,10.10
2015,02,18,06,03,10.00
2015,02,18,06,04,10.00
2015,02,18,06,05,9.90
2015,02,18,06,06,9.90
2015,02,18,06,07,9.90
2015,02,18,06,08,9.80
2015,02,18,06,09,9.80
2015,02,18,06,10,9.80
2015,02,18,06,11,9.80
2015,02,18,06,12,9.80
2015,02,18,06,13,9.80
2015,02,18,06,14,9.70
2015,02,18,06,15,9.70
2015,02,18,06,16,9.70
2015,02,18,06,17,9.70
2015,02,18,06,18,9.70
2015,02,18,06,19,9.60
2015,02,18,06,20,9.60
2015,02,18,06,21,9.60
2015,02,18,06,22,9.60
2015,02,18,06,23,9.60
2015,02,18,06,24,9.50
2015,02,18,06,25,9.50
2015,02,18,06,26,9.50
2015,02,18,06,27,9.40
2015,02,18,06,28,9.40
2015,02,18,06,29,9.40
2015,02,18,06,30,9.40
2015,02,18,06,31,9.40
2015,02,18,06,32,9.40
2015,02,18,06,33,9.40
2015,02,18,06,34,9.40
2015,02,18,06,35,9.40
2015,02,18,06,36,9.40
2015,02,18,06,37,9.40
2015,02,18,06,38,9.40
2015,02,18,06,39,9.40
2015,02,18,06,40,9.40
2015,02,18,06,41,9.30
2015,02,18,06,42,9.30
2015,02,18,06,43,9.30
2015,02,18,06,44,9.30
2015,02,18,06,45,9.30
2015,02,18,06,46,9.30
2015,02,18,06,47,9.30
2015,02,18,06,48,9.30
2015,02,18,06,49,9.30
2015,02,18,06,50,9.30
2015,02,18,06,51,9.30
2015,02,18,06,52,9.30
2015,02,18,06,53,9.30
2015,02,18,06,54,9.30
2015,02,18,06,55,9.30
2015,02,18,06,56,9.30
2015,02,18,06,57,9.30
2015,02,18,06,58,9.30
2015,02,18,06,59,9.20
2015,02,18,07,00,9.20
2015,02,18,07,01,9.20
2015,02,18,07,02,9.20
2015,02,18,07,03,9.20
2015,02,18,07,04,9.20
2015,02,18,07,05,9.20
2015,02,18,07,06,9.20
2015,02,18,07,07,9.20
2015,02,18,07,08,9.20
2015,02,18,07,09,9.20
2015,02,18,07,10,9.20
2015,02,18,07,11,9.20
2015,02,18,07,12,9.20
2015,02,18,07,13,9.20
2015,02,18,07,14,9.20
2015,02,18,07,15,9.20
2015,02,18,07,16,9.20
2015,02,18,07,17,9.20
2015,02,18,07,18,9.20
2015,02,18,07,19,9.20
2015,02,18,07,20,9.20
2015,02,18,07,21,9.20
2015,02,18,07,22,9.20
2015,02,18,07,23,9.20
2015,02,18,07,24,9.20
2015,02,18,07,25,9.20
2015,02,18,07,26,9.20
2015,02,18,07,27,9.20
2015,02,18,07,28,9.20
2015,02,18,07,29,9.20
2015,02,18,07,30,9.20
2015,02,18,07,31,9.20
2015,02,18,07,32,9.20
2015,02,18,07,33,9.20
2015,02,18,07,34,9.20
2015,02,18,07,35,9.20
2015,02,18,07,36,9.20
2015,02,18,07,37,9.20
2015,02,18,07,38,9.20
2015,02,18,07,39,9.20
2015,02,18,07,40,9.20
2015,02,18,07,41,9.20
2015,02,18,07,42,9.20
2015,02,18,07,43,9.20
2015,02,18,07,44,9.20
2015,02,18,07,45,9.20
2015,02,18,07,46,9.30
2015,02,18,07,47,9.30
2015,02,18,07,48,9.30
2015,02,18,07,49,9.30
2015,02,18,07,50,9.30
2015,02,18,07,51,9.30
2015,02,18,07,52,9.30
2015,02,18,07,53,9.30
2015,02,18,07,54,9.30
2015,02,18,07,55,9.30
2015,02,18,07,56,9.30
2015,02,18,07,57,9.30
2015,02,18,07,58,9.30
2015,02,18,07,59,9.30
2015,02,18,08,00,9.30
2015,02,18,08,01,9.30
2015,02,18,08,02,9.30
2015,02,18,08,03,9.30
2015,02,18,08,04,9.30
2015,02,18,08,07,9.30
2015,02,18,08,08,9.30
2015,02,18,08,09,9.30
2015,02,18,08,10,9.30
2015,02,18,08,11,9.30
2015,02,18,08,12,9.30
2015,02,18,08,13,9.30
2015,02,18,08,14,9.30
2015,02,18,08,15,9.30
2015,02,18,08,16,9.30
2015,02,18,08,17,9.30
2015,02,18,08,18,9.30
2015,02,18,08,19,9.30
2015,02,18,08,20,9.40
2015,02,18,08,21,9.40
2015,02,18,08,22,9.40
2015,02,18,08,23,9.50
2015,02,18,08,24,9.50
2015,02,18,08,25,9.50
2015,02,18,08,26,9.50
2015,02,18,08,27,9.50
2015,02,18,08,28,9.60
2015,02,18,08,29,9.60
2015,02,18,08,30,9.60
2015,02,18,08,31,9.60
2015,02,18,08,32,9.60
2015,02,18,08,33,9.60
2015,02,18,08,34,9.60
2015,02,18,08,35,9.60
2015,02,18,08,36,9.60
2015,02,18,08,37,9.60
2015,02,18,08,38,9.60
2015,02,18,08,39,9.60
2015,02,18,08,40,9.60
2015,02,18,08,41,9.60
2015,02,18,08,42,9.60
2015,02,18,08,43,9.60
2015,02,18,08,44,9.60
2015,02,18,08,45,9.60
2015,02,18,08,46,9.60
2015,02,18,08,47,9.60
2015,02,18,08,48,9.60
2015,02,18,08,49,9.60
2015,02,18,08,50,9.60
2015,02,18,08,51,9.60
2015,02,18,08,52,9.60
2015,02,18,08,53,9.60
2015,02,18,08,54,9.60
2015,02,18,08,55,9.60
2015,02,18,08,56,9.60
2015,02,18,08,57,9.60
2015,02,18,08,58,9.60
2015,02,18,08,59,9.60
2015,02,18,09,00,9.60
2015,02,18,09,01,9.60
2015,02,18,09,02,9.60
2015,02,18,09,03,9.60
2015,02,18,09,04,9.60
2015,02,18,09,05,9.60
2015,02,18,09,06,9.60
2015,02,18,09,07,9.60
2015,02,18,09,08,9.60
2015,02,18,09,09,9.60
2015,02,18,09,10,9.60
2015,02,18,09,11,9.60
2015,02,18,09,12,9.60
2015,02,18,09,13,9.70
2015,02,18,09,14,9.70
2015,02,18,09,15,9.70
2015,02,18,09,16,9.70
2015,02,18,09,17,9.70
2015,02,18,09,18,9.70
2015,02,18,09,19,9.70
2015,02,18,09,20,9.70
2015,02,18,09,21,9.70
2015,02,18,09,22,9.70
2015,02,18,09,23,9.70
2015,02,18,09,24,9.70
2015,02,18,09,25,9.70
2015,02,18,09,26,9.70
2015,02,18,09,27,9.70
2015,02,18,09,28,9.70
2015,02,18,09,29,9.70
2015,02,18,09,30,9.70
2015,02,18,09,31,9.70
2015,02,18,09,32,9.70
2015,02,18,09,33,9.70
2015,02,18,09,34,9.80
2015,02,18,09,35,9.80
2015,02,18,09,36,9.80
2015,02,18,09,37,9.80
2015,02,18,09,38,9.80
2015,02,18,09,39,9.80
2015,02,18,09,40,9.80
2015,02,18,09,41,9.80
2015,02,18,09,42,9.80
2015,02,18,09,43,9.80
2015,02,18,09,44,9.80
2015,02,18,09,45,9.80
2015,02,18,09,46,9.80
2015,02,18,09,47,9.80
2015,02,18,09,48,9.80
2015,02,18,09,49,9.80
2015,02,18,09,50,9.80
2015,02,18,09,51,9.80
2015,02,18,09,52,9.80
2015,02,18,09,53,9.80
2015,02,18,09,54,9.80
2015,02,18,09,55,9.80
2015,02,18,09,56,9.80
2015,02,18,09,57,9.80
2015,02,18,09,58,9.80
2015,02,18,09,59,9.80
2015,02,18,10,00,9.80
2015,02,18,10,01,9.80
2015,02,18,10,02,9.80
2015,02,18,10,03,9.80
2015,02,18,10,04,9.80
2015,02,18,10,05,9.80
2015,02,18,10,06,9.80
2015,02,18,10,07,9.80
2015,02,18,10,08,9.80
2015,02,18,10,09,9.80
2015,02,18,10,10,9.80
2015,02,18,10,11,9.90
2015,02,18,10,12,9.90
2015,02,18,10,13,9.90
2015,02,18,10,14,9.90
2015,02,18,10,15,9.90
2015,02,18,10,16,9.90
2015,02,18,10,17,9.90
2015,02,18,10,18,9.90
2015,02,18,10,19,10.00
2015,02,18,10,20,10.00
2015,02,18,10,21,10.00
2015,02,18,10,22,10.00
2015,02,18,10,23,10.00
2015,02,18,10,24,10.00
2015,02,18,10,25,10.00
2015,02,18,10,26,10.00
2015,02,18,10,27,10.00
2015,02,18,10,28,10.00
2015,02,18,10,29,10.00
2015,02,18,10,30,10.00
2015,02,18,10,31,10.00
2015,02,18,10,32,10.10
2015,02,18,10,33,10.10
2015,02,18,10,34,10.10
2015,02,18,10,35,10.10
2015,02,18,10,36,10.10
2015,02,18,10,37,10.10
2015,02,18,10,38,10.10
2015,02,18,10,39,10.10
2015,02,18,10,40,10.10
2015,02,18,10,41,10.10
2015,02,18,10,42,10.10
2015,02,18,10,43,10.20
2015,02,18,10,44,10.20
2015,02,18,10,45,10.20
2015,02,18,10,46,10.20
